Location: Newark
(50.0306°N, 2.3272°E)
Time: 05:05:50
(UTC+00:00)

A-11 Canister half - Pass Details

Date: 14 December 2019
Orbit: 1525 x 1684 km, 47.3° (Epoch: 27 January)

Event Time Altitude Azimuth Distance (km) Brightness Sun altitude
Rises 09:46:14 0° 283° (WNW) 4,942 11.3 12.2°
Reaches altitude 10° 09:49:28 10° 280° (W) 3,950 10.8 12.4°
Maximum altitude 09:59:20 59° 205° (SSW) 1,874 10.0 13.1°
Drops below altitude 10° 10:08:59 10° 129° (SE) 3,862 12.4 13.7°
Sets 10:12:07 0° 126° (SE) 4,826 12.6 13.9°
